Weather History for Deadhorse Alpine Airstrip, AK

Change the Weather History Date:

Monday, April 14, 2014

  Actual Average Record
Temperature  
Mean Temperature 25 °F -  
Max Temperature 33 °F - - ()
Min Temperature 17 °F - - ()
Degree Days  
Heating Degree Days 40    
Moisture  
Dew Point 23 °F    
Average Humidity 81    
Maximum Humidity 87    
Minimum Humidity 70    
Precipitation  
Precipitation 0.00 in - - ()
Sea Level Pressure  
Sea Level Pressure 29.84 in    
Wind  
Wind Speed 9 mph (SSW)    
Max Wind Speed 12 mph    
Max Gust Speed -    
Visibility 9 miles    
Events Snow    
T = Trace of Precipitation, MM = Missing Value Source: NWS Daily Summary

Daily Weather History Graph

Daily Weather History Graph

Search for Another Location

Airport:

Trip Planner

Search our weather history database for the weather conditions in past years. The results will help you decide how hot, cold, wet, or windy it might be!

Date:

Astronomy

Apr. 14, 2014 Rise Set
Actual Time 6:00 AM AKDT 10:10 PM AKDT
Civil Twilight 4:37 AM AKDT 11:35 PM AKDT
Nautical Twilight 2:36 AM AKDT Sun does not rise
Astronomical Twilight Sun does not rise Sun does not rise
Moon 9:58 PM AKDT (4/14) 6:02 AM AKDT (4/14)
Length of Visible Light 18h 57m
Length of Day
16h 09m
Full, 100% of the Moon is Illuminated
Apr 14
Full
Apr 14
Full
Apr 21
Last Quarter
Apr 28
New
May 6
First Quarter

Hourly Weather History & Observations

Time (AKDT) Temp. Windchill Dew Point Humidity Pressure Visibility Wind Dir Wind Speed Gust Speed Precip Events Conditions
4:04 AM 17.6 °F 8.2 °F 12.2 °F 79% 29.81 in 14.0 mi SW 6.9 mph - N/A   Mostly Cloudy
5:45 AM 19.4 °F 9.5 °F 15.8 °F 86% 29.82 in 4.0 mi SW 8.1 mph - N/A Snow Light Snow
6:48 AM 21.2 °F 10.9 °F 17.6 °F 86% 29.83 in 4.0 mi SW 9.2 mph - N/A Snow Light Snow
7:48 AM 24.8 °F 14.6 °F 21.2 °F 86% 29.83 in 5.5 mi SW 10.4 mph - N/A Snow Light Snow
8:48 AM 26.6 °F 18.2 °F 23.0 °F 86% 29.83 in 5.0 mi South 8.1 mph - N/A Snow Light Snow
9:03 AM 26.6 °F 19.1 °F 23.0 °F 86% 29.83 in 5.0 mi South 6.9 mph - N/A Snow Light Snow
9:28 AM 30.2 °F 20.8 °F 26.6 °F 86% 29.83 in 5.0 mi SSW 11.5 mph - N/A Snow Light Snow
9:46 AM 30.2 °F 20.8 °F 26.6 °F 86% 29.83 in 4.0 mi SSW 11.5 mph - N/A Snow Light Snow
10:17 AM 30.2 °F 20.8 °F 26.6 °F 86% 29.83 in 7.0 mi SSW 11.5 mph - N/A Snow Light Snow
10:57 AM 32.0 °F 23.0 °F 28.4 °F 87% 29.85 in 7.0 mi SSW 11.5 mph - N/A Snow Light Snow
11:48 AM 33.8 °F 25.3 °F 28.4 °F 81% 29.83 in 7.0 mi SW 11.5 mph - N/A   Mostly Cloudy
12:58 PM 30.2 °F 22.6 °F 24.8 °F 80% 29.85 in 14.0 mi SSW 8.1 mph - N/A   Partly Cloudy
1:48 PM 30.2 °F 21.3 °F 23.0 °F 75% 29.84 in 14.0 mi South 10.4 mph - N/A   Partly Cloudy
2:48 PM 32.0 °F 25.6 °F 24.8 °F 75% 29.84 in 14.0 mi South 6.9 mph - N/A   Partly Cloudy
3:58 PM 32.0 °F 23.6 °F 24.8 °F 75% 29.85 in 14.0 mi SSW 10.4 mph - N/A   Scattered Clouds
4:58 PM 33.8 °F 25.8 °F 24.8 °F 70% 29.85 in 14.0 mi SSW 10.4 mph - N/A   Scattered Clouds
5:46 PM 32.0 °F 24.2 °F 24.8 °F 75% 29.85 in 14.0 mi South 9.2 mph - N/A   Scattered Clouds
6:45 PM 30.2 °F 21.9 °F 24.8 °F 80% 29.85 in 14.0 mi SSW 9.2 mph - N/A   Scattered Clouds
7:45 PM 28.4 °F 19.7 °F 23.0 °F 80% 29.86 in 14.0 mi SSW 9.2 mph - N/A   Scattered Clouds